Вернуться в каталог

STARLINK-36758

АктивенСвязьVLEO
NORAD 67926·PAYLOAD·🇺🇸 United States

Запущен Feb 22, 2026 с Vandenberg Space Force Base

Loading…

Ближайшие Пролёты (ближайшие 24 часа)

TLE

СвежийSource: CelesTrak SupGP

Эпоха: Sep 15, 2026, 04:21 UTC

1 67926C 26036Y   26258.18173611 -.00047780  00000+0 -17309-2 0  2585
2 67926  43.0027 255.1172 0001420 271.0814  46.5538 15.27596473    12

Отслеживайте STARLINK-36758 в реальном времени с AllMySat

Download on the App Store